Location: T. Spence Memorial Observatory
(32.7356°N, 82.2098°W)
Time: 04:11:13
(UTC-05:00)

Daily predictions for brighter satellites

Satellite Brightness Start Highest point End
(mag) Time Altitude Azimuth Time Altitude Azimuth Time Altitude Azimuth
Cosmos 1980 Rocket 4.5 04:00:37 20° E 04:00:37 20° E 04:02:52 10° ESE
SL-16 R/B 4.4 04:38:28 14° NNE 04:41:13 20° ENE 04:45:14 10° ESE
Milstar 3 Cent rocket 4.2 04:42:37 30° SSW 04:42:49 30° SSW 04:52:19 10° SE
Cosmos 2322 Rocket 4.4 04:42:20 14° NNE 04:45:19 21° ENE 04:49:28 10° ESE
Cosmos 2360 4.5 04:52:37 64° ESE 04:52:37 64° ESE 04:57:39 10° SSE
Meteor 1-13 Rocket 4.3 04:56:39 78° ESE 04:56:39 78° ESE 05:02:19 10° S
Timation 2 Rocket 4.5 05:00:29 52° N 05:00:29 52° N 05:05:41 10° NNE
Cosmos 1697 Rocket 4.4 05:04:03 21° S 05:04:03 21° S 05:05:52 10° S
Meteor 1-5 Rocket 4.1 05:03:33 10° S 05:09:00 80° E 05:14:21 10° N
Okean 1 Rocket 3.9 05:09:26 10° SSE 05:13:37 48° E 05:17:51 10° NNE
ATLAS CENTAUR R/B 4.4 05:11:54 10° SE 05:13:41 13° ESE 05:15:27 10° E
Cosmos 2279 Rocket 4.4 05:18:11 45° SW 05:18:11 45° SW 05:22:43 10° SSW
CZ-3A R/B 4.0 05:12:33 29° WSW 05:16:49 43° S 05:20:37 10° ESE
Cosmos 1680 Rocket 4.5 05:17:46 10° S 05:22:43 47° ESE 05:27:41 10° NNE
Okean-O 3.3 05:18:45 10° NNE 05:23:06 54° E 05:27:25 10° S
CZ-2C R/B 3.7 05:19:02 10° SSE 05:23:26 75° ENE 05:24:12 58° NNE
CZ-4C R/B 3.6 05:35:13 22° NNW 05:35:13 22° NNW 05:37:58 10° N
Cosmos 2360 Rocket 4.2 05:35:51 10° N 05:40:25 24° ENE 05:44:55 10° ESE
IDEFIX/ARIANE 42P 2.8 05:36:54 10° NNE 05:42:08 73° ESE 05:47:20 10° S
Cosmos 1980 Rocket 2.8 05:42:27 36° WSW 05:42:27 36° WSW 05:47:19 10° SSW
GPS 2-05 Rocket1 2.8 05:43:19 75° SSE 05:43:19 75° SSE 05:46:42 10° ENE
USA 267 4.2 05:40:12 10° NNE 05:45:24 26° NNW 05:45:49 26° NW
RESURS DK-1 4.2 05:49:06 18° SW 05:49:06 18° SW 05:50:35 10° SSW
Aurora 2 Rocket 3.7 05:46:53 21° SSW 05:47:42 22° S 05:50:54 10° SE
SKYMED 2 3.6 05:43:24 10° SSE 05:47:42 76° ENE 05:51:24 14° N
Meteor 1-23 Rocket 4.1 05:49:24 16° NNW 05:53:43 61° W 05:59:10 10° S
Cosmos 1515 3.5 05:53:10 27° NNW 05:55:08 78° W 05:58:58 10° S
Cosmos 923 Rocket 4.0 05:50:01 10° SSW 05:55:10 59° WNW 06:00:20 10° N
APEX 3.0 05:57:24 51° WNW 05:57:26 51° WNW 06:01:16 10° NNE
Nadezhda 4 Rocket 4.5 05:57:26 10° SW 06:02:53 33° WNW 06:08:20 10° NNW
Chunghua 1 4.5 06:04:16 37° WNW 06:05:40 86° NNE 06:09:32 10° ESE
CZ-4 R/B 4.4 06:04:24 10° NE 06:07:28 19° E 06:10:33 10° SE
Cosmos 1455 Rocket 4.5 06:03:51 10° SSE 06:08:01 41° E 06:12:12 10° NNE
Lacrosse 5 3.5 06:04:34 10° S 06:09:11 36° ESE 06:13:48 10° NE
Cosmos 1184 Rocket 2.8 06:08:14 12° N 06:11:20 84° ENE 06:14:41 10° S
Cosmos 2112 Rocket 3.9 06:06:15 10° SSW 06:11:23 66° WNW 06:16:33 10° N
SeaSat 1 3.7 06:08:24 10° N 06:11:23 20° NW 06:11:23 20° NW
Cosmos 1544 Rocket 4.5 06:08:14 10° SSE 06:12:33 51° E 06:16:51 10° NNE
BREEZE-M DEB (TANK) 4.4 05:48:19 10° SW 06:12:46 87° NW 06:17:47 10° NE
Meteor 1-4 Rocket 3.9 06:10:11 10° SW 06:12:20 23° WSW 06:12:20 23° WSW
CZ-2C R/B 2.2 06:10:00 10° N 06:14:44 71° WNW 06:19:19 10° SSW
USA 234 3.7 06:10:40 10° ESE 06:17:04 58° NE 06:23:28 10° NW
Cosmos 1975 2.7 06:13:32 10° SSW 06:17:29 66° W 06:21:27 10° N
Cosmos 1025 Rocket 3.1 06:13:27 10° NNW 06:17:37 51° W 06:21:46 10° S
PAYLOAD A 4.3 06:13:02 10° N 06:18:12 46° WNW 06:23:12 10° SW
Cosmos 2285 Rocket 4.1 06:12:55 10° SSW 06:19:03 53° WNW 06:25:13 10° N
TRAILBLAZER 4.5 06:15:32 10° SSW 06:20:01 84° WNW 06:24:37 10° NNE
SL-16 R/B 2.4 06:20:23 11° NNW 06:25:34 49° WSW 06:30:58 10° S
OAO 3 Copernicus 4.4 06:24:10 18° WNW 06:27:54 67° N 06:32:55 10° E
Okean 1-7 Rocket 3.7 06:23:33 10° NNW 06:28:00 56° W 06:32:26 10° S
Okean 2 4.0 06:25:28 10° NNW 06:29:11 34° W 06:32:54 10° SSW
Cosmos 2322 Rocket 2.5 06:24:12 10° NW 06:29:33 46° WSW 06:34:56 10° S
CSL-04 Rocket 4.4 06:25:04 10° NNE 06:30:33 60° ESE 06:35:58 10° S
SJ-12 3.9 06:30:09 10° N 06:34:09 56° WNW 06:38:06 10° SSW
Cosmos 1743 2.6 06:31:28 10° SSW 06:35:13 62° W 06:39:01 10° N
COSMO-SKYMED 1 3.6 06:32:10 10° SSW 06:35:50 27° W 06:39:31 10° NW
EO 1 Del DPAF 4.3 06:34:31 10° SSW 06:37:45 26° W 06:41:01 10° NW
SMAP 3.6 06:33:16 10° NNE 06:37:54 64° E 06:42:29 10° S
S3M 4.2 06:34:44 10° N 06:40:59 79° E 06:47:16 10° S
Ariane Rocket 3.4 06:37:40 10° NNE 06:42:43 69° ESE 06:47:45 10° S
SJ-7 4.4 06:39:34 10° N 06:43:41 82° W 06:47:48 10° SSW
Aureole 1 Rocket 2.3 06:42:24 10° SSW 06:45:21 76° ESE 06:48:39 10° NNE
Meteor 1-12 Rocket 4.4 06:42:05 10° SSW 06:47:37 50° W 06:53:06 10° N
Cosmos 1484 Rocket 2.7 06:45:33 10° N 06:49:22 67° WNW 06:53:06 10° SSW
ATLAS CENTAUR R/B 1.8 06:48:57 10° WSW 06:52:18 31° WNW 06:55:38 10° N
SL-16 Debris 3.9 06:52:00 10° WSW 06:54:37 32° S 06:56:38 10° ESE
Cosmos 389 Rocket 3.4 06:51:43 10° SW 06:54:53 29° WNW 06:58:04 10° NNW
BREEZE-M DEB (TANK) 4.3 06:54:08 10° NW 06:55:30 13° N 06:57:18 10° NNE
MSX 4.3 06:50:16 10° N 06:55:31 38° WNW 07:00:44 10° SW
Cosmos 2322 3.8 06:51:19 10° NNW 06:57:01 87° ENE 07:02:39 10° SSE
Okean-O 4.4 06:57:44 10° NW 06:59:03 11° WNW 07:00:23 10° W
Cosmos 2266 Rocket 4.0 06:54:37 10° S 07:00:44 89° E 07:06:48 10° N
